Meteo Giornale » Osservazioni meteo Irlanda » Casement Aerodrome

ore: 01:00 - Osservazioni Meteo Casement Aerodrome
Lat. 53° 18' N Lon. 6° 26' W Alt. 97 metri s.l.m.

sereno

14 °C

Sereno

Temp. 24 Ore

13 °C

18 °C

Sud-Ovest

18.5 Km/h

Dew point 10 °C

Umidità 76 %

Visibilità  10 Km

Il sole sorge alle ore 06:35

Il sole tramonta alle ore 20:15

Data e Ora Cielo e Fenomeni T °C DP °C Um. % Pres. hPa Vis. km Vento km/h
Oggi h: 01:00 sereno Sereno 14 10 76 1017 10 SO 18.5
Oggi h: 00:00 sereno Sereno 14 10 76 1017 10 SO 16.7
Ieri h: 23:00 sereno Sereno 14 10 76 1017 10 SO 14.8
Ieri h: 22:00 sereno Sereno 14 10 76 1017 10 SO 13
Ieri h: 21:00 poco_nuvoloso Poco Nuvoloso 14 10 76 1017 10 O/SO 13
Ieri h: 20:00 poco_nuvoloso Poco Nuvoloso 15 10 72 1017 10 O 14.8
Ieri h: 19:00 poco_nuvoloso Poco Nuvoloso 17 9 59 1016 10 O 16.7
Ieri h: 18:00 nuvoloso Nuvoloso 17 9 59 1016 10 O 18.5
Ieri h: 17:30 poco_nuvoloso Poco Nuvoloso 17 8 55 1016 10 O 20.3
Ieri h: 17:00 nuvoloso Nuvoloso 18 8 51 1016 10 O 20.3
Ieri h: 16:30 nuvoloso Nuvoloso 17 9 59 1016 10 O 18.5
Ieri h: 16:00 nuvoloso Nuvoloso 18 9 55 1015 10 O 22.2
Ieri h: 15:30 nuvoloso Nuvoloso 18 9 55 1015 10 O 20.3
Ieri h: 15:00 molto_nuvoloso Molto Nuvoloso 17 10 63 1015 10 O/NO 16.7
Ieri h: 14:30 molto_nuvoloso Molto Nuvoloso 17 10 63 1015 10 O 22.2
Ieri h: 14:00 coperto_pioggia Pioviggine 17 10 63 1015 10 O/NO 24
Ieri h: 13:30 molto_nuvoloso Molto Nuvoloso 17 11 67 1014 10 O 20.3
Ieri h: 13:00 molto_nuvoloso Molto Nuvoloso 16 10 67 1014 10 O 25.9
Ieri h: 12:30 molto_nuvoloso Molto Nuvoloso 17 10 63 1014 10 O/NO 22.2
Ieri h: 12:00 molto_nuvoloso Molto Nuvoloso 16 10 67 1013 10 O/NO 20.3
Ieri h: 11:30 molto_nuvoloso Molto Nuvoloso 15 11 76 1013 10 O 25.9
Ieri h: 11:00 molto_nuvoloso Molto Nuvoloso 15 10 72 1013 10 O/NO 22.2
Ieri h: 10:30 molto_nuvoloso Molto Nuvoloso 15 11 76 1012 10 O 27.8
Ieri h: 10:00 nuvoloso Nuvoloso 15 11 76 1012 10 O 29.6
Ieri h: 09:30 nuvoloso Nuvoloso 14 11 82 1012 10 O 24
Ieri h: 09:00 molto_nuvoloso Molto Nuvoloso 14 11 82 1011 10 O/NO 24
Ieri h: 08:30 molto_nuvoloso Molto Nuvoloso 13 11 87 1011 10 O 24
Ieri h: 08:00 molto_nuvoloso Molto Nuvoloso 13 11 87 1010 10 O 22.2
Ieri h: 07:00 molto_nuvoloso Molto Nuvoloso 14 12 87 1009 10 O 20.3
Ieri h: 06:00 molto_nuvoloso Molto Nuvoloso 14 13 93 1008 10 O 22.2
Ieri h: 05:00 molto_nuvoloso Molto Nuvoloso 14 13 93 1007 10 O 16.7
Ieri h: 04:00 molto_nuvoloso Molto Nuvoloso 14 13 93 1006 10 O 16.7
Ieri h: 03:00 molto_nuvoloso Molto Nuvoloso 14 13 93 1005 10 O 18.5
Ieri h: 02:00 coperto_pioggia Pioviggine 14 14 100 1004 10 O 16.7